Погода в Этоко

Россия / Кабардино-Балкарская Республика     43°56′47″N   43°10′33″E
темп.,
°C
ветер,
м/с
пор.,
м/с
влажн.,
%
обл.,
%
осадки,
мм/ч
давл.,
гПа
погр.,
м
8 марта, пн
пн800:00−1юв23610 0.0 1022164
03:00−2сз35630 0.0 1022346
06:00−2сз116315 0.0 102286
09:00−1ссв114957 0.0 1021544
12:00+2всв334595 0.0 10191074
15:00+3всв224598 0.0 10171209
18:00+2св1253100 0.0 1018147
21:000ссв116299 0.0 101976
9 марта, вт
вт900:00−1зсз126669 0.0 101824
03:00−1з116643 0.0 101821
06:00−1ююв116667 0.0 101821
09:00+2юв245435 0.0 1017559
12:00+5юв22442 0.0 10161147
15:00+6с333614 0.0 10161843
18:00+4ссз4550100 0.0 1017972
21:000сз4694100 0.0 1021356
10 марта, ср
ср1000:000зсз4882100 0.0 1022548
03:00−1ссз369399 0.1 1023415
06:00−3сз358470 0.1 1024396
09:00−1сз476138 0.1 1024764
12:00+2сз455348 0.0 10231086
15:00+2ссз445674 0.0 10221043
18:000ссв3363100 0.1 1022839
21:00−1всв3465100 0.2 1022738
11 марта, чт
чт1100:00−2в4570100 0.1 1021714
03:00−4в5692100 0.8 1020423
06:00−5в5794100 2.4 1020495
09:00−5в5894100 4.9 1020572
12:00−4всв6894100 2.8 1020676
15:00−5всв6996100 5.9 1020727
18:00−7в5896100 3.3 1023644
21:00−8вюв6995100 5.7 1024634
12 марта, пт
пт1200:00−9в5996100 1.7 1025580
03:00−10всв4796100 3.3 1026497
06:00−11в4796100 1.3 1028504
09:00−11в4694100 1.8 1030555
12:00−9вюв4691100 0.3 1030676
15:00−8в4691100 0.6 1030627
18:00−10вюв3696100 0.2 1032146
21:00−13ююв339686 0.3 103458